Flag for U.S.A. Weather past 2 weeks in St. Petersburg, Florida, U.S.A.

Now
77 °F

Sunny.


Feels Like: 79 °F
Forecast: 66 / 80 °F
Wind: 8 mph from North

Location: Whitted Airport

Current Time: Oct 22, 2014 at 8:52:09 PM

Latest Report: Oct 22, 2014 at 7:53 PM


Visibility: 10 mi

Pressure: 29.93 "Hg

Humidity: 64%

Dew point: 64 °F

Location of St. PetersburgLocation

Historic Weather in St. Petersburg — Graph

°F

St. Petersburg temperature yesterday

Maximum temperature yesterday: 83 °F (at 3:53 PM)
Minimum temperature yesterday: 74 °F (at 6:53 AM)
Average temperature yesterday: 78 °F

Past Weeks' High & Low Weather Summary

 TemperatureHumidityPressure
High90 °F (Oct 11, 3:53 PM)97% (Oct 14, 6:04 PM)30.13 "Hg (Oct 14, 6:04 PM)
Low69 °F (Oct 18, 4:53 AM)42% (Oct 8, 2:53 PM)29.89 "Hg (Oct 21, 3:53 PM)
Average78 °F69%29.98 "Hg
* Reported Oct 7 7:53 PM — Oct 22 7:53 PM, St. Petersburg, Weather by CustomWeather, © 2014

Note: Actual official high and low records may vary slightly from our data, if they occured in-between our weather recording intervals... More about our weather records

Advertising

St. Petersburg weather history for previous 24 hours

 ConditionsComfort  
Time TempWeatherWind HumidityBarometerVisibility
7:53 PM
Oct 22
77 °FSunny.8 mph64%29.93 "Hg10 mi
6:53 PM78 °FSunny.8 mph64%29.92 "Hg10 mi
5:53 PM82 °FSunny.No wind51%29.90 "Hg10 mi
4:53 PM82 °FSunny.3 mph49%29.90 "Hg10 mi
3:53 PM83 °FSunny.3 mph51%29.90 "Hg10 mi
2:53 PM83 °FSunny.6 mph55%29.92 "Hg10 mi
1:53 PM82 °FSunny.7 mph55%29.94 "Hg10 mi
12:53 PM81 °FSunny.7 mph58%29.97 "Hg10 mi
11:53 AM79 °FSunny.9 mph62%29.98 "Hg10 mi
10:53 AM77 °FSunny.9 mph64%29.99 "Hg10 mi
9:53 AM76 °FSunny.14 mph67%29.99 "Hg10 mi
8:53 AM74 °FSunny.10 mph74%29.97 "Hg10 mi
7:53 AM73 °FClear.12 mph79%29.95 "Hg10 mi
6:53 AM73 °FClear.8 mph81%29.94 "Hg10 mi
5:53 AM73 °FClear.8 mph81%29.93 "Hg10 mi
4:53 AM74 °FClear.7 mph82%29.93 "Hg10 mi
3:53 AM74 °FClear.8 mph88%29.91 "Hg10 mi
2:53 AM74 °FClear.7 mph82%29.91 "Hg10 mi
1:53 AM75 °FClear.6 mph79%29.93 "Hg10 mi
12:53 AM75 °FClear.5 mph76%29.93 "Hg10 mi
11:53 PM
Oct 21
75 °FClear.6 mph76%29.94 "Hg10 mi
10:53 PM76 °FClear.5 mph72%29.94 "Hg10 mi
9:53 PM77 °FClear.6 mph66%29.94 "Hg10 mi
8:53 PM77 °FClear.5 mph66%29.93 "Hg10 mi
Weather by CustomWeather, © 2014

See weather overviewHow to use our weather pages